WD7OO Weather Reports


time (UTC)temp
C
wind
direction
speed
KPH
gust
KPH
rain 1hr
cm
rain 24hr
cm
rain mn
cm
humidity
%
barometer
mb
20260906101615 16 333 0.0 0.0 0.00 0.00 0.00 99 1018.6
20260906101115 17 333 0.0 0.0 0.00 0.00 0.00 99 1018.6
20260906100611 17 333 0.0 0.0 0.00 0.00 0.00 99 1018.4
20260906100111 17 333 0.0 0.0 0.00 0.00 0.00 99 1018.3
20260906095610 17 333 0.0 0.0 0.00 0.00 0.00 99 1018.5
20260906095106 17 333 0.0 0.0 0.00 0.00 0.00 99 1018.5
20260906094604 17 333 0.0 0.0 0.00 0.00 0.00 99 1018.4
20260906094101 17 333 0.0 0.0 0.00 0.00 0.00 99 1018.4
20260906093556 17 333 0.0 0.0 0.00 0.00 0.00 99 1018.3
20260906093051 17 333 0.0 0.0 0.00 0.00 0.00 99 1018.4
20260906092546 17 333 0.0 0.0 0.00 0.00 0.00 99 1018.6
20260906092041 17 333 0.0 0.0 0.00 0.00 0.00 99 1018.4
20260906091537 17 333 0.0 0.0 0.00 0.00 0.00 99 1018.3
20260906091033 17 333 0.0 0.0 0.00 0.00 0.00 99 1018.5
20260906090528 17 333 0.0 0.0 0.00 0.00 0.00 99 1018.2
20260906090023 17 333 0.0 0.0 0.00 0.00 0.00 99 1018.3
20260906085522 17 333 0.0 0.0 0.00 0.00 0.00 99 1018.3
20260906085021 17 323 0.0 0.0 0.00 0.00 0.00 99 1018.3
20260906084516 18 318 0.0 0.0 0.00 0.00 0.00 99 1018.2
20260906084015 18 315 0.0 0.0 0.00 0.00 0.00 99 1018.1
20260906083511 18 302 0.0 0.0 0.00 0.00 0.00 99 1018.3
20260906083010 18 350 0.0 1.6 0.00 0.00 0.00 99 1018.1
20260906082505 18 295 0.0 1.6 0.00 0.00 0.00 99 1018.1
20260906082001 18 352 0.0 0.0 0.00 0.00 0.00 99 1018.1
20260906081456 18 320 0.0 1.6 0.00 0.00 0.00 99 1018.1
20260906080952 18 330 0.0 0.0 0.00 0.00 0.00 99 1018.1
20260906080448 18 296 0.0 0.0 0.00 0.00 0.00 99 1018.1
20260906075943 18 27 0.0 1.6 0.00 0.00 0.00 99 1018.1
20260906075438 18 53 0.0 4.8 0.00 0.00 0.00 99 1018.0
20260906074932 18 338 0.0 1.6 0.00 0.00 0.00 98 1018.1
20260906074427 18 318 0.0 1.6 0.00 0.00 0.00 98 1018.0
20260906073926 18 303 0.0 1.6 0.00 0.00 0.00 98 1018.1
20260906073421 18 0 0.0 1.6 0.00 0.00 0.00 97 1018.2
20260906072917 18 57 1.6 1.6 0.00 0.00 0.00 97 1018.2
20260906072412 19 274 0.0 1.6 0.00 0.00 0.00 97 1018.1
20260906071908 19 279 0.0 3.2 0.00 0.00 0.00 97 1018.2
20260906071404 19 51 1.6 1.6 0.00 0.00 0.00 97 1017.9
20260906070859 19 310 0.0 0.0 0.00 0.00 0.00 96 1018.1
20260906070355 20 318 0.0 0.0 0.00 0.00 0.00 96 1017.9
20260906065851 20 173 0.0 3.2 0.00 0.00 0.00 96 1018.1
20260906065345 20 342 0.0 1.6 0.00 0.00 0.00 96 1018.3
20260906064840 20 316 0.0 1.6 0.00 0.00 0.00 96 1018.0
20260906064337 20 67 1.6 1.6 0.00 0.00 0.00 96 1018.2
20260906063837 20 340 0.0 0.0 0.00 0.00 0.00 96 1018.0
20260906063332 20 55 3.2 8.0 0.00 0.00 0.00 96 1018.2
20260906062827 20 342 0.0 4.8 0.00 0.00 0.00 97 1018.5
20260906062326 20 344 0.0 1.6 0.00 0.00 0.00 97 1018.2
20260906061822 20 89 0.0 3.2 0.00 0.00 0.00 98 1018.0
20260906061318 20 290 0.0 1.6 0.00 0.00 0.00 99 1018.1
20260906060813 20 335 0.0 0.0 0.00 0.00 0.00 99 1018.1
20260906060311 20 301 0.0 0.0 0.00 0.00 0.00 99 1017.9
20260906055807 20 336 0.0 0.0 0.00 0.00 0.00 99 1018.1
20260906055306 20 326 0.0 0.0 0.00 0.00 0.00 99 1017.9
20260906054756 20 317 0.0 0.0 0.00 0.00 0.00 99 1017.8
20260906054252 20 316 0.0 0.0 0.00 0.00 0.00 99 1017.6
20260906053748 20 312 0.0 0.0 0.00 0.00 0.00 99 1017.5
20260906053244 20 312 0.0 0.0 0.00 0.00 0.00 99 1017.5
20260906052738 20 311 0.0 0.0 0.00 0.00 0.00 98 1017.6
20260906052229 20 312 0.0 0.0 0.00 0.00 0.00 98 1017.5
20260906051726 20 309 0.0 0.0 0.00 0.00 0.00 98 1017.8
20260906051225 20 309 0.0 0.0 0.00 0.00 0.00 97 1017.6
20260906050721 21 303 0.0 0.0 0.00 0.00 0.00 97 1017.5
20260906050216 21 303 0.0 0.0 0.00 0.00 0.00 97 1017.4
20260906045714 21 303 0.0 0.0 0.00 0.00 0.00 96 1017.4
20260906045210 21 303 0.0 0.0 0.00 0.00 0.00 96 1017.5
20260906044706 21 305 0.0 0.0 0.00 0.00 0.00 96 1017.4
20260906044201 21 304 0.0 0.0 0.00 0.00 0.00 95 1017.5
20260906043656 21 320 0.0 0.0 0.00 0.00 0.00 95 1017.6
20260906043152 21 309 0.0 0.0 0.00 0.00 0.00 95 1017.4
20260906042651 21 309 0.0 0.0 0.00 0.00 0.00 95 1017.5
20260906042145 21 299 0.0 1.6 0.00 0.00 0.00 95 1017.5
20260906041641 21 295 0.0 0.0 0.00 0.00 0.00 95 1017.3
20260906041136 21 302 0.0 0.0 0.00 0.00 0.00 95 1017.5
20260906040631 21 302 0.0 1.6 0.00 0.00 0.00 95 1017.3
20260906040127 21 318 0.0 0.0 0.00 0.00 0.00 95 1017.3
20260906035622 21 289 0.0 0.0 0.00 0.18 0.18 95 1017.4
20260906035118 21 303 0.0 0.0 0.00 0.18 0.18 95 1017.2
20260906034618 21 303 0.0 0.0 0.00 0.18 0.18 95 1017.2
20260906034113 21 303 0.0 0.0 0.00 0.18 0.18 95 1017.1
20260906033609 21 299 0.0 1.6 0.00 0.18 0.18 94 1017.3
20260906033103 21 312 0.0 0.0 0.00 0.18 0.18 94 1017.2
20260906032600 21 297 0.0 0.0 0.00 0.18 0.18 94 1017.1
20260906032100 21 312 0.0 1.6 0.00 0.18 0.18 94 1017.0
20260906031555 21 303 0.0 0.0 0.00 0.18 0.18 94 1017.0
20260906031051 21 334 0.0 0.0 0.00 0.18 0.18 94 1017.1
20260906030550 21 335 0.0 3.2 0.00 0.18 0.18 94 1017.1
20260906030049 21 313 0.0 0.0 0.00 0.18 0.18 94 1017.1
20260906025544 21 316 0.0 3.2 0.00 0.18 0.18 94 1017.1
20260906025042 21 324 0.0 0.0 0.00 0.18 0.18 94 1017.2
20260906024537 21 333 0.0 1.6 0.00 0.18 0.18 94 1017.1
20260906024032 21 308 0.0 0.0 0.00 0.18 0.18 94 1016.9
20260906023528 21 321 0.0 0.0 0.00 0.18 0.18 94 1017.0
20260906023023 21 321 0.0 0.0 0.00 0.18 0.18 93 1017.0
20260906022518 21 324 0.0 0.0 0.00 0.18 0.18 93 1017.0
20260906022013 21 193 3.2 3.2 0.00 0.18 0.18 93 1016.9
20260906021508 21 314 0.0 0.0 0.00 0.18 0.18 93 1017.1
20260906021002 22 311 0.0 0.0 0.00 0.18 0.18 93 1016.9
20260906020456 22 311 0.0 1.6 0.00 0.18 0.18 93 1016.8
20260906015956 21 328 0.0 1.6 0.00 0.18 0.18 92 1016.8
20260906015455 22 331 0.0 1.6 0.00 0.18 0.18 92 1016.8
20260906014950 22 298 0.0 1.6 0.00 0.18 0.18 92 1016.6
20260906014450 22 213 1.6 1.6 0.00 0.18 0.18 92 1016.7
20260906013946 22 334 0.0 4.8 0.00 0.18 0.18 91 1016.6
20260906013441 22 305 0.0 1.6 0.00 0.18 0.18 91 1016.5
20260906012936 22 340 0.0 3.2 0.00 0.18 0.18 91 1016.5
20260906012431 22 266 1.6 1.6 0.00 0.18 0.18 91 1016.4
20260906011931 22 349 0.0 4.8 0.00 0.18 0.18 92 1016.5
20260906011426 22 333 0.0 0.0 0.00 0.18 0.18 92 1016.0
20260906010921 22 335 0.0 1.6 0.00 0.18 0.18 92 1016.1
20260906010416 22 43 1.6 8.0 0.00 0.18 0.18 92 1016.2
20260906005912 22 321 0.0 0.0 0.00 0.18 0.18 93 1016.3
20260906005412 22 326 0.0 0.0 0.00 0.18 0.18 92 1016.1
20260906004910 22 304 0.0 3.2 0.00 0.18 0.18 92 1016.3
20260906004405 22 269 0.0 3.2 0.00 0.18 0.18 92 1016.0
20260906003901 22 345 0.0 3.2 0.00 0.18 0.18 92 1016.0
20260906003356 22 289 1.6 1.6 0.00 0.18 0.18 92 1016.0
20260906002851 22 24 4.8 4.8 0.00 0.18 0.18 92 1016.2
20260906002350 22 328 0.0 1.6 0.00 0.18 0.18 92 1015.8
20260906001846 22 293 1.6 1.6 0.00 0.18 0.18 91 1015.7
20260906001342 22 326 0.0 4.8 0.00 0.18 0.18 91 1015.7
20260906000836 23 311 0.0 1.6 0.00 0.18 0.18 91 1015.6
20260906000333 23 336 0.0 3.2 0.00 0.18 0.18 91 1015.6
20260905235825 23 317 0.0 1.6 0.00 0.18 0.18 90 1015.5
20260905235320 23 154 4.8 9.7 0.00 0.18 0.18 90 1015.3
20260905234816 23 332 0.0 14.5 0.00 0.18 0.18 90 1015.4
20260905234311 23 183 1.6 4.8 0.00 0.18 0.18 90 1015.5
20260905233811 23 32 3.2 11.3 0.00 0.18 0.18 90 1015.4
20260905233306 24 163 3.2 4.8 0.00 0.18 0.18 90 1015.4
20260905232805 24 359 1.6 8.0 0.00 0.18 0.18 89 1015.3
20260905232305 25 320 3.2 8.0 0.00 0.18 0.18 88 1014.8
20260905231757 25 6 1.6 4.8 0.00 0.18 0.18 87 1015.1
20260905231252 25 176 1.6 4.8 0.00 0.18 0.18 86 1014.8
20260905230748 25 256 1.6 3.2 0.00 0.18 0.18 87 1015.2
20260905230246 25 178 3.2 4.8 0.00 0.18 0.18 87 1015.1
20260905225746 25 175 4.8 4.8 0.00 0.18 0.18 85 1015.1
20260905225241 26 180 3.2 3.2 0.00 0.18 0.18 85 1014.8
20260905224740 26 201 1.6 1.6 0.00 0.18 0.18 84 1014.8
20260905224236 26 17 4.8 9.7 0.00 0.18 0.18 83 1014.9
20260905223732 26 13 1.6 3.2 0.00 0.18 0.18 83 1014.6
20260905223228 26 349 1.6 3.2 0.00 0.18 0.18 83 1014.6
20260905222724 27 302 0.0 4.8 0.00 0.18 0.18 81 1014.5
20260905222223 27 331 0.0 8.0 0.00 0.18 0.18 81 1014.4
20260905221719 26 143 1.6 4.8 0.00 0.18 0.18 82 1014.1
20260905221216 27 357 3.2 4.8 0.00 0.18 0.18 80 1014.3
20260905220711 27 280 1.6 4.8 0.00 0.18 0.18 82 1014.4
20260905220207 27 292 0.0 1.6 0.00 0.18 0.18 80 1014.2
20260905215706 27 330 0.0 8.0 0.00 0.18 0.18 80 1014.1
20260905215202 27 335 1.6 1.6 0.00 0.18 0.18 79 1014.4
20260905214658 28 225 3.2 4.8 0.00 0.18 0.18 77 1014.0
20260905214153 28 160 4.8 9.7 0.00 0.18 0.18 74 1014.0
20260905213648 28 337 1.6 3.2 0.00 0.18 0.18 75 1014.2
20260905213144 28 322 1.6 4.8 0.00 0.18 0.18 76 1014.0
20260905212639 28 209 3.2 3.2 0.00 0.18 0.18 76 1014.1
20260905212138 29 5 3.2 8.0 0.00 0.18 0.18 76 1013.8
20260905211633 30 168 3.2 4.8 0.00 0.18 0.18 74 1014.0
20260905211129 29 318 3.2 3.2 0.00 0.18 0.18 74 1014.0
20260905210625 30 321 3.2 8.0 0.00 0.18 0.18 74 1013.9
20260905210120 29 350 0.0 3.2 0.00 0.18 0.18 76 1014.0
20260905205619 28 207 3.2 3.2 0.00 0.18 0.18 77 1013.8
20260905205119 27 194 1.6 4.8 0.00 0.18 0.18 80 1013.9
20260905204618 28 322 3.2 8.0 0.00 0.18 0.18 80 1013.8
20260905204114 27 343 1.6 4.8 0.00 0.18 0.18 80 1014.0
20260905203614 28 223 1.6 3.2 0.00 0.18 0.18 81 1014.0
20260905203109 28 151 4.8 4.8 0.00 0.18 0.18 79 1014.0
20260905202604 29 10 0.0 3.2 0.00 0.18 0.18 78 1013.9
20260905202059 30 318 0.0 9.7 0.00 0.18 0.18 75 1014.0
20260905201555 30 296 0.0 1.6 0.00 0.18 0.18 77 1014.2
20260905201054 30 241 1.6 3.2 0.00 0.18 0.18 76 1013.9
20260905200550 29 329 0.0 8.0 0.00 0.18 0.18 79 1014.2
20260905200044 30 310 1.6 4.8 0.00 0.18 0.18 76 1014.1
20260905195544 30 294 1.6 1.6 0.00 0.18 0.18 75 1014.1
20260905195040 29 193 4.8 8.0 0.00 0.18 0.18 75 1014.0
20260905194539 28 224 1.6 4.8 0.00 0.18 0.18 79 1014.1
20260905194038 30 320 0.0 1.6 0.00 0.18 0.18 77 1014.2
20260905193534 29 325 0.0 1.6 0.00 0.18 0.18 78 1014.2
20260905193029 28 7 0.0 1.6 0.00 0.18 0.18 83 1014.0
20260905192524 28 328 0.0 1.6 0.00 0.18 0.18 81 1014.3
20260905192021 30 353 3.2 3.2 0.00 0.18 0.18 75 1014.1
20260905191519 30 339 0.0 4.8 0.00 0.18 0.18 78 1014.1
20260905191018 30 278 1.6 3.2 0.00 0.18 0.18 78 1014.3
20260905190516 30 327 0.0 9.7 0.00 0.18 0.18 77 1014.1
20260905190010 29 315 0.0 1.6 0.00 0.18 0.18 80 1014.3
20260905185504 30 225 1.6 4.8 0.00 0.18 0.18 77 1014.3
20260905185003 30 65 1.6 3.2 0.00 0.18 0.18 76 1014.3
20260905184459 29 327 0.0 1.6 0.00 0.18 0.18 80 1014.3
20260905183957 28 224 1.6 1.6 0.00 0.18 0.18 82 1014.2
20260905183457 28 329 0.0 3.2 0.00 0.18 0.18 82 1014.4
20260905182952 29 245 0.0 1.6 0.00 0.18 0.18 79 1014.5
20260905182451 30 315 3.2 4.8 0.00 0.18 0.18 78 1014.3
20260905181946 28 327 0.0 1.6 0.00 0.18 0.18 80 1014.4
20260905181441 28 312 0.0 0.0 0.00 0.18 0.18 82 1014.7
20260905180940 28 313 0.0 0.0 0.00 0.18 0.18 81 1014.3
20260905180435 29 10 1.6 11.3 0.00 0.18 0.18 78 1014.5
20260905175930 30 6 1.6 3.2 0.00 0.18 0.18 74 1014.6
20260905175429 30 333 1.6 3.2 0.00 0.18 0.18 76 1014.5
20260905174925 29 273 0.0 1.6 0.00 0.18 0.18 79 1014.7
20260905174421 28 303 0.0 1.6 0.00 0.18 0.18 80 1014.6
20260905173916 28 314 0.0 0.0 0.00 0.18 0.18 82 1014.7
20260905173413 29 331 0.0 0.0 0.00 0.18 0.18 81 1014.5
20260905172913 28 263 0.0 1.6 0.00 0.18 0.18 76 1014.7
20260905172410 29 291 0.0 0.0 0.00 0.18 0.18 77 1014.9
20260905171907 29 303 0.0 0.0 0.00 0.18 0.18 79 1014.8
20260905171404 29 308 0.0 1.6 0.00 0.18 0.18 77 1014.8
20260905170900 30 349 0.0 1.6 0.00 0.18 0.18 77 1014.6
20260905170355 30 290 0.0 3.2 0.00 0.18 0.18 75 1014.7
20260905165854 29 352 0.0 1.6 0.00 0.18 0.18 78 1015.2
20260905165350 28 253 1.6 1.6 0.00 0.18 0.18 76 1014.9
20260905164844 28 335 1.6 1.6 0.00 0.18 0.18 79 1014.9
20260905164339 29 310 0.0 1.6 0.00 0.18 0.18 76 1014.9
20260905163835 28 233 1.6 1.6 0.00 0.18 0.18 79 1015.1
20260905163331 28 336 1.6 1.6 0.00 0.18 0.18 80 1014.8
20260905162827 28 353 0.0 1.6 0.00 0.18 0.18 81 1015.2
20260905162321 28 332 0.0 1.6 0.00 0.18 0.18 81 1015.3
20260905161815 27 340 1.6 3.2 0.00 0.18 0.18 83 1015.3
20260905161315 28 71 0.0 1.6 0.00 0.18 0.18 82 1015.2
20260905160813 28 349 0.0 3.2 0.00 0.18 0.18 83 1015.2
20260905160308 27 315 0.0 1.6 0.00 0.18 0.18 83 1015.2
20260905155802 26 285 1.6 3.2 0.00 0.18 0.18 87 1015.3
20260905155301 26 278 1.6 3.2 0.00 0.18 0.18 87 1015.4
20260905154755 25 303 0.0 1.6 0.00 0.18 0.18 89 1015.3
20260905154251 26 323 0.0 0.0 0.00 0.18 0.18 90 1015.5
20260905153746 25 290 0.0 0.0 0.00 0.18 0.18 90 1015.3
20260905153242 25 290 0.0 0.0 0.00 0.18 0.18 90 1015.4
20260905152737 25 278 1.6 1.6 0.00 0.18 0.18 91 1015.3
20260905152231 25 308 0.0 0.0 0.00 0.18 0.18 90 1015.3
20260905151730 25 286 0.0 1.6 0.00 0.18 0.18 90 1015.4
20260905151227 25 303 0.0 3.2 0.00 0.18 0.18 91 1015.2
20260905150727 25 332 0.0 1.6 0.00 0.18 0.18 92 1015.1
20260905150226 25 340 0.0 1.6 0.00 0.18 0.18 91 1015.2
20260905145724 25 12 0.0 3.2 0.00 0.18 0.18 90 1015.2
20260905145219 25 350 1.6 1.6 0.00 0.18 0.18 90 1015.2
20260905144717 25 293 0.0 1.6 0.00 0.18 0.18 89 1015.4
20260905144212 25 293 0.0 1.6 0.00 0.18 0.18 91 1015.5
20260905143711 24 320 0.0 1.6 0.00 0.18 0.18 93 1015.4
20260905143206 23 14 1.6 1.6 0.00 0.18 0.18 94 1015.1
20260905142704 23 339 0.0 1.6 0.00 0.18 0.18 95 1015.2
20260905142159 23 290 1.6 1.6 0.00 0.18 0.18 95 1015.2
20260905141655 23 321 0.0 0.0 0.00 0.18 0.18 96 1015.3
20260905141150 23 322 0.0 1.6 0.00 0.18 0.18 95 1015.2
20260905140645 24 340 0.0 0.0 0.00 0.18 0.18 96 1014.9
20260905140139 23 323 1.6 3.2 0.00 0.18 0.18 96 1014.9
20260905135634 23 318 0.0 1.6 0.00 0.18 0.18 99 1014.9
20260905135130 23 331 0.0 0.0 0.00 0.18 0.18 99 1015.1
20260905134624 22 208 0.0 1.6 0.00 0.18 0.18 99 1015.1
20260905134123 22 310 0.0 0.0 0.00 0.18 0.18 99 1015.1
20260905133618 22 328 0.0 0.0 0.00 0.18 0.18 99 1015.3
20260905133113 22 316 0.0 0.0 0.00 0.18 0.18 99 1014.9
20260905132613 22 316 0.0 0.0 0.00 0.18 0.18 99 1014.9
20260905132107 22 325 0.0 0.0 0.00 0.18 0.18 99 1014.8
20260905131603 22 325 0.0 0.0 0.00 0.18 0.18 99 1014.9
20260905131058 22 325 0.0 0.0 0.00 0.18 0.18 99 1014.6
20260905130557 22 326 0.0 0.0 0.00 0.18 0.18 99 1014.8
20260905130052 22 326 0.0 0.0 0.00 0.18 0.18 99 1015.2
20260905125552 22 342 0.0 0.0 0.00 0.18 0.18 99 1014.7
20260905125047 22 330 0.0 0.0 0.00 0.18 0.18 99 1014.8
20260905124544 22 331 0.0 0.0 0.00 0.18 0.18 99 1015.1
20260905124039 21 330 0.0 0.0 0.00 0.18 0.18 99 1014.6
20260905123535 21 330 0.0 0.0 0.00 0.18 0.18 99 1014.6
20260905123032 21 330 0.0 1.6 0.00 0.18 0.18 99 1014.4
20260905122531 21 329 0.0 0.0 0.00 0.18 0.18 99 1014.1
20260905122026 21 329 0.0 0.0 0.00 0.18 0.18 99 1014.2
20260905121521 21 329 0.0 0.0 0.00 0.18 0.18 99 1014.2
20260905121021 21 329 0.0 0.0 0.00 0.18 0.18 99 1014.1
20260905120515 21 329 0.0 0.0 0.00 0.18 0.18 99 1014.3
20260905120011 21 329 0.0 0.0 0.00 0.18 0.18 99 1014.3
20260905115509 21 329 0.0 0.0 0.00 0.18 0.18 99 1014.0
20260905115004 21 329 0.0 0.0 0.00 0.18 0.18 99 1014.1
20260905114504 21 330 0.0 0.0 0.00 0.18 0.18 99 1013.9
20260905114003 21 330 0.0 0.0 0.00 0.18 0.18 99 1014.0
20260905113458 21 330 0.0 1.6 0.00 0.18 0.18 99 1014.1
20260905112953 21 330 0.0 0.0 0.00 0.18 0.18 99 1014.0
20260905112448 21 330 0.0 0.0 0.00 0.18 0.18 99 1014.1
20260905111943 21 330 0.0 0.0 0.00 0.18 0.18 99 1013.8
20260905111438 21 330 0.0 0.0 0.00 0.18 0.18 99 1014.1
20260905110938 21 330 0.0 0.0 0.00 0.18 0.18 99 1013.8
20260905110431 21 330 0.0 0.0 0.00 0.18 0.18 99 1013.6
20260905105931 21 330 0.0 0.0 0.00 0.18 0.18 99 1013.7
20260905105426 21 330 0.0 0.0 0.00 0.18 0.18 99 1013.6
20260905104926 21 330 0.0 0.0 0.00 0.18 0.18 99 1013.5
20260905104422 21 330 0.0 0.0 0.00 0.18 0.18 99 1013.6
20260905103922 21 330 0.0 0.0 0.00 0.18 0.18 99 1013.5
20260905103418 21 330 0.0 0.0 0.00 0.18 0.18 99 1013.3
20260905102913 21 330 0.0 0.0 0.00 0.18 0.18 99 1013.5
20260905102410 21 330 0.0 0.0 0.00 0.18 0.18 99 1013.6